METAR AND TAF INFORMATION
METAR FOR LIMJ
ADDS - METARS form results

(2234 UTC 22 March 2019)
Data provider http://aviationweather.gov/metar/data/
 
METAR text: LIMJ 222220Z 05008KT CAVOK 17/M09 Q1025
Conditions at: LIMJ (GENOVA/SESTRI , IT) observed 2220 UTC 22 March 2019
Temperature: 17.0°C (63°F)
Dewpoint: -9.0°C (16°F) [RH = 16%]
Pressure (altimeter): 30.27 inches Hg (1025.0 mb)
Winds: from the NE (50 degrees) at 9 MPH (8 knots; 4.1 m/s)
Visibility: 6 or more miles (10+ km)
Ceiling: ceiling and visibility are OK
Clouds: unknown
Weather: no significant weather observed at this time

METAR text: LIMJ 222150Z 04011KT CAVOK 17/M07 Q1025
Conditions at: LIMJ (GENOVA/SESTRI , IT) observed 2150 UTC 22 March 2019
Temperature: 17.0°C (63°F)
Dewpoint: -7.0°C (19°F) [RH = 19%]
Pressure (altimeter): 30.27 inches Hg (1025.0 mb)
Winds: from the NE (40 degrees) at 13 MPH (11 knots; 5.7 m/s)
Visibility: 6 or more miles (10+ km)
Ceiling: ceiling and visibility are OK
Clouds: unknown
Weather: no significant weather observed at this time

Forecast for: LIMJ (GENOVA/SESTRI , IT)
Text: TAF LIMJ 221700Z 2218/2318 01010KT CAVOK
Forecast period: 1800 UTC 22 March 2019 to 1800 UTC 23 March 2019
Forecast type: FROM: standard forecast or significant change
Winds: from the N (10 degrees) at 12 MPH (10 knots; 5.1 m/s)
Visibility: 6 or more miles 10+ km)
Ceiling: unknown
Clouds: missing
Weather: NSW  (no significant weather)

 AIRPORT MAP

 RUNWAY INFORMATION
Runway 10 Runway length 9564 ft Runway width 148 ft
Runway elevation 9 ft Runway displaced threshold 0 ft Runway heading 105
Runway 28 Runway length 9564 ft Runway width 148 ft
Runway elevation 12 ft Runway displaced threshold 528 ft Runway heading 285

 AIRPORT FREQUENCIES
Type APP Name APP Frequency 119.6 MHZ
Type ATIS Name ATIS Frequency 122.825 MHZ
Type TWR Name TWR Frequency 118.6 MHZ

 AIRPORT NEAR NAVIGATION AIDS
Type VOR-DME Name Genova Frequency 112800 KHZ
Type NDB Name Genova Frequency 318 KHZ
Type VOR-DME Name Genova Sestri Frequency 108600 KHZ


... ... ... ... ... ...

© Copyright 2017 All Rights Reserved. Virtual NATO is in no way affiliated with NATO or any of the NATO Members

Virtual NATO is a volunteer not for profit group of friends with the common interest in promoting enjoyment and education through the simulation of military operations and procedure through the use of operating standards within several flight simulation platforms.

Powered by Virtual Airlines Manager [v2.6.2] Customized by Virtual NATO